Bloomington, IL

7:06 PM CST on February 19, 2017 (GMT -0600)
Central Ill Regional

Weather History for KBMI - June, 2012

Change the Weather History Date:

Tuesday, June 19, 2012

  Actual Average Record
Temperature  
Mean Temperature 81 °F -  
Max Temperature 90 °F 80 °F 91 °F (1999)
Min Temperature 72 °F 65 °F 50 °F (1976)
Cooling Degree Days 16    
Growing Degree Days 31 (Base 50)    
Moisture  
Dew Point 66 °F    
Average Humidity 59    
Maximum Humidity 78    
Minimum Humidity 45    
Precipitation  
Precipitation 0.00 in - - ()
Sea Level Pressure  
Sea Level Pressure 29.92 in    
Wind  
Wind Speed 18 mph (SSW)    
Max Wind Speed 24 mph    
Max Gust Speed -    
Visibility 10 miles    
Events      
Averages and records for this station are not official NWS values.
T = Trace of Precipitation, MM = Missing Value Source: NWS Daily Summary

Daily Weather History Graph

Daily Weather History Graph

Search for Another Location

Airport or City:

Trip Planner

Search our weather history database for the weather conditions in past years. The results will help you decide how hot, cold, wet, or windy it might be!

Date:

Astronomy

Jun. 19, 2012 Rise Set
Actual Time 5:25 AM CDT 8:29 PM CDT
Civil Twilight 4:51 AM CDT 9:02 PM CDT
Nautical Twilight 4:09 AM CDT 9:44 PM CDT
Astronomical Twilight 3:19 AM CDT 10:34 PM CDT
Moon 5:29 AM CDT (6/19) 8:33 PM CDT (6/19)
Length of Visible Light 16h 10m
Length of Day
15h 04m
New Moon, 0% of the Moon is Illuminated
Jun 19
New Moon
Jun 26
First Quarter
Jul 3
Full
Jul 10
Last Quarter
Jul 18
New

Hourly Weather History & Observations

Time (CDT) Temp. Heat Index Dew Point Humidity Pressure Visibility Wind Dir Wind Speed Gust Speed Precip Events Conditions
12:56 AM 77.9 °F - 61.0 °F 56% 29.85 in 10.0 mi SSW 19.6 mph - N/A   Clear
1:56 AM 75.9 °F - 61.9 °F 62% 29.86 in 10.0 mi SSW 19.6 mph - N/A   Clear
2:56 AM 74.8 °F - 63.9 °F 69% 29.86 in 10.0 mi SSW 18.4 mph - N/A   Clear
3:56 AM 73.9 °F - 63.9 °F 71% 29.86 in 10.0 mi SSW 17.3 mph - N/A   Clear
4:56 AM 72.9 °F - 63.9 °F 73% 29.88 in 10.0 mi SSW 16.1 mph - N/A   Clear
5:56 AM 72.0 °F - 64.9 °F 78% 29.89 in 10.0 mi SSW 15.0 mph - N/A   Clear
6:56 AM 73.9 °F - 65.8 °F 76% 29.91 in 10.0 mi SSW 15.0 mph - N/A   Clear
7:56 AM 75.9 °F - 66.9 °F 74% 29.94 in 10.0 mi SSW 17.3 mph - N/A   Clear
8:56 AM 79.0 °F - 68.0 °F 69% 29.95 in 10.0 mi SSW 16.1 mph - N/A   Clear
9:56 AM 81.9 °F 84.8 °F 68.0 °F 63% 29.96 in 10.0 mi SW 15.0 mph - N/A   Clear
10:56 AM 84.9 °F 89.4 °F 70.0 °F 61% 29.96 in 10.0 mi SSW 12.7 mph - N/A   Clear
11:56 AM 86.9 °F 91.0 °F 68.9 °F 55% 29.96 in 10.0 mi South 17.3 mph - N/A   Clear
12:56 PM 88.0 °F 92.1 °F 68.9 °F 53% 29.95 in 10.0 mi SSW 18.4 mph - N/A   Partly Cloudy
1:56 PM 90.0 °F 94.5 °F 68.9 °F 50% 29.94 in 10.0 mi SSW 18.4 mph - N/A   Scattered Clouds
2:56 PM 90.9 °F 94.8 °F 68.0 °F 47% 29.93 in 10.0 mi SSW 20.7 mph - N/A   Scattered Clouds
3:56 PM 90.9 °F 94.0 °F 66.9 °F 45% 29.92 in 10.0 mi South 20.7 mph - N/A   Scattered Clouds
4:56 PM 90.0 °F 92.8 °F 66.9 °F 46% 29.92 in 10.0 mi South 24.2 mph - N/A   Unknown
5:56 PM 88.9 °F 91.0 °F 65.8 °F 46% 29.92 in 10.0 mi South 21.9 mph - N/A   Partly Cloudy
6:56 PM 86.9 °F 88.9 °F 65.8 °F 49% 29.92 in 10.0 mi South 19.6 mph - N/A   Partly Cloudy
7:56 PM 84.9 °F 86.6 °F 64.9 °F 51% 29.93 in 10.0 mi South 16.1 mph - N/A   Clear
8:56 PM 81.0 °F 82.5 °F 63.9 °F 56% 29.93 in 10.0 mi South 12.7 mph - N/A   Clear
9:56 PM 79.9 °F - 63.0 °F 56% 29.95 in 10.0 mi South 12.7 mph - N/A   Clear
10:56 PM 79.0 °F - 63.0 °F 58% 29.96 in 10.0 mi South 15.0 mph - N/A   Clear
11:56 PM 77.9 °F - 63.0 °F 60% 29.96 in 10.0 mi South 16.1 mph - N/A   Clear